Theta_e
336 338 338 341 341 340 340 337 335 335 334 334 333 333 333 333 332 332 332 346 351 351 354 355 355 354 353 351 350 352 355 355 354 351 350 349 350 350 349 349 349 349 348
337 338 338 341 339 340 339 337 334 336 336 338 338 339 339 341 342 341 343 340 350 349 351 354 356 356 355 354 353 352 352 353 354 353 350 349 349 349 350 350 349 349 349
336 338 340 339 342 341 340 342 342 341 340 343 340 341 344 344 343 334 339 342 343 350 349 351 353 355 356 356 355 354 352 351 353 353 351 349 349 348 349 350 350 349 348
341 340 345 344 344 344 342 338 338 337 334 334 340 342 343 343 341 340 341 340 341 343 344 350 350 351 351 347 349 352 354 352 351 351 351 351 350 349 348 349 350 350 349
348 347 349 346 345 339 336 335 331 332 327 331 339 339 337 340 338 338 335 335 338 340 340 345 345 344 340 339 341 342 343 350 350 350 351 351 351 350 349 348 349 349 349
348 349 348 346 344 337 335 334 330 327 326 325 334 339 334 333 334 333 332 335 335 335 335 337 335 334 340 345 345 343 343 346 348 350 350 349 350 350 349 349 348 348 348
349 350 349 346 342 336 335 335 328 325 327 333 331 326 325 325 326 328 328 329 330 333 333 334 334 330 329 337 336 340 350 353 353 351 348 346 348 349 349 349 348 348 347
353 351 346 346 341 340 339 336 335 335 334 333 326 321 317 318 322 324 324 328 327 330 333 334 331 331 331 332 335 344 349 352 352 354 348 345 346 348 349 349 348 348 346
352 351 345 344 343 340 339 339 339 336 329 328 326 320 312 311 314 320 323 326 325 325 326 330 333 334 333 331 331 339 344 343 347 350 348 347 346 349 349 348 347 347 347
350 350 346 344 342 341 338 337 341 335 327 324 322 324 320 317 316 311 315 322 322 319 318 323 330 332 333 330 331 339 339 339 343 344 345 348 349 349 349 347 345 345 346
346 346 346 343 341 339 337 333 337 331 327 323 320 319 317 316 316 312 308 311 312 315 317 317 318 323 328 333 334 334 334 334 334 335 337 338 338 342 346 347 347 347 347
342 345 345 342 339 337 334 331 331 328 326 324 323 320 316 312 309 311 308 308 308 309 314 313 312 314 319 321 334 335 331 330 330 330 331 333 336 339 340 343 345 347 349
335 340 340 338 335 333 330 328 325 325 325 322 322 320 318 315 316 311 309 307 306 307 308 311 310 310 316 321 324 332 333 329 328 327 327 328 331 334 336 338 340 343 344
330 334 335 332 333 332 329 326 324 324 323 324 322 321 320 320 316 313 310 306 304 303 305 307 308 313 311 320 325 331 323 327 326 324 323 324 326 328 329 330 332 334 335
330 331 329 330 330 331 329 326 324 322 323 321 320 319 318 318 317 316 313 310 307 303 303 307 307 311 312 319 319 318 316 321 324 323 320 321 322 324 325 325 326 327 328
322 324 325 327 329 328 328 326 323 322 321 321 321 320 320 321 320 319 317 314 310 310 305 307 309 310 312 319 321 319 315 322 322 320 319 320 320 321 321 322 322 323 324
322 321 322 322 323 324 324 325 325 326 324 322 321 321 321 320 319 319 317 316 313 311 311 312 310 312 313 314 315 316 317 317 315 318 320 319 317 317 317 318 318 320 321
318 320 321 320 321 321 320 321 320 319 320 322 322 321 321 325 319 319 319 316 315 314 313 314 312 310 311 313 314 314 317 317 314 318 319 318 317 316 316 316 315 316 315
313 313 315 315 317 315 313 313 313 315 314 314 316 316 317 317 317 318 318 318 319 319 314 314 315 312 312 313 313 312 312 311 316 322 318 319 318 318 317 315 315 314 313
310 310 310 311 312 312 312 313 312 308 307 309 310 310 310 309 309 310 311 313 315 315 315 314 315 315 312 312 311 312 311 309 311 315 318 318 318 318 317 316 317 318 314
307 308 308 308 308 308 310 305 305 303 302 304 305 307 308 310 314 312 310 307 307 307 308 310 311 310 310 308 308 312 308 309 308 310 313 313 313 312 312 315 320 316 311
302 303 303 304 303 308 301 302 302 299 299 300 300 302 304 308 308 309 309 310 308 305 306 307 305 306 308 308 308 308 308 304 303 306 310 307 311 308 311 314 311 307 307
297 297 298 299 299 299 300 298 300 296 296 297 298 299 300 303 304 304 305 306 306 306 307 305 302 303 304 307 309 309 305 304 303 305 307 304 306 306 310 316 307 306 307
293 293 293 294 294 296 298 297 298 295 295 295 296 296 296 297 299 301 301 301 302 303 303 305 305 305 307 309 311 310 309 307 306 307 308 305 307 305 310 312 305 306 304
290 291 292 292 291 292 295 294 295 294 295 296 296 296 297 296 297 296 298 298 299 300 302 302 301 300 299 299 304 308 307 308 307 305 307 310 305 306 308 310 309 303 301
290 292 292 292 294 293 294 295 295 296 294 294 295 296 298 297 295 295 296 297 297 298 299 300 302 303 302 303 301 303 306 305 308 307 307 306 304 307 304 314 309 309 306
Wind_Speed
5 4 5 4 4 4 4 4 3 3 5 4 4 6 7 6 5 3 3 11 12 13 16 15 15 17 16 15 13 14 14 15 15 16 13 12 13 13 14 14 13 13 13
5 5 4 6 4 5 5 4 4 5 5 5 6 7 7 6 6 5 4 5 12 14 14 16 17 17 16 16 15 15 14 15 15 15 17 15 15 14 14 15 15 14 13
8 7 5 5 6 6 4 5 3 4 3 3 6 4 5 6 3 4 4 4 5 13 15 17 14 13 14 12 12 12 14 16 15 17 16 17 16 15 15 16 15 15 15
7 7 5 5 4 4 4 4 4 4 3 1 2 3 4 4 5 5 4 3 2 3 2 6 7 8 6 3 8 10 12 13 14 17 16 16 16 15 16 16 17 17 16
10 7 6 4 5 4 4 3 3 2 2 3 2 3 4 3 4 2 4 4 5 3 1 2 7 7 6 8 10 8 7 11 14 15 16 16 16 16 16 17 17 17 16
11 8 5 6 6 4 4 3 3 1 3 1 3 4 4 4 2 3 3 2 1 3 5 4 4 5 10 15 13 11 4 10 14 16 15 15 16 18 17 18 18 18 17
12 10 8 5 5 6 5 4 2 1 2 1 3 3 3 4 3 4 2 3 2 3 5 4 3 4 4 9 7 8 9 12 16 17 15 15 17 18 18 18 18 19 19
11 10 7 6 6 5 5 4 5 3 3 4 4 2 3 5 3 2 3 0 3 4 6 5 5 6 6 4 7 11 14 15 13 11 12 13 15 16 17 18 20 19 19
10 9 8 6 6 5 6 6 7 8 4 3 5 5 2 4 2 3 2 2 3 2 5 5 6 7 6 5 5 7 12 10 10 9 6 8 12 13 14 15 17 18 19
8 8 7 7 6 5 6 6 4 3 4 5 1 1 1 4 3 4 3 4 3 4 5 3 5 6 6 5 7 8 7 6 9 11 13 11 9 10 10 11 14 15 17
7 6 8 7 6 4 4 6 5 8 4 4 4 3 1 1 2 3 4 4 3 4 4 2 3 4 5 5 5 3 3 6 4 4 5 7 7 11 8 7 8 11 13
4 6 7 6 6 6 7 6 6 7 5 4 4 4 4 4 4 3 2 4 4 5 3 4 3 3 3 3 3 3 2 4 7 7 7 5 6 10 9 10 11 12 13
1 5 5 6 5 5 4 5 6 6 5 4 6 4 4 5 3 4 4 4 4 4 4 3 4 4 3 2 3 4 4 5 6 8 8 8 10 11 10 11 12 13 13
2 3 4 4 6 6 7 6 3 4 5 5 7 6 4 4 4 4 5 5 2 3 2 7 3 4 4 4 6 7 4 6 7 8 10 11 12 12 12 10 10 12 13
5 6 5 6 4 6 7 6 4 5 5 5 6 6 5 5 5 5 4 4 5 4 4 5 4 5 4 4 6 5 5 6 8 9 11 12 12 13 15 10 12 14 15
7 8 8 7 4 3 2 3 4 5 5 5 5 7 6 5 5 4 5 5 5 6 5 6 6 6 4 4 7 6 7 8 8 10 11 11 12 13 14 16 13 13 15
7 7 7 6 5 5 6 5 5 6 6 6 5 6 7 6 5 5 4 5 5 5 7 5 5 5 4 6 6 5 6 6 5 10 12 11 11 12 13 15 15 13 13
5 6 7 6 5 6 5 6 4 5 5 6 6 6 8 6 6 7 7 7 7 6 7 13 7 6 7 7 6 6 6 5 5 8 10 6 8 10 9 7 12 12 11
3 3 3 4 5 6 6 5 4 4 5 5 4 4 5 5 5 6 7 8 7 7 5 8 8 4 6 4 5 4 5 5 5 11 10 8 9 5 6 7 9 11 11
7 6 5 5 5 5 5 6 4 4 4 4 5 5 5 5 6 5 4 5 5 5 5 5 7 6 5 6 4 6 6 4 5 5 7 7 7 6 8 8 8 10 11
7 7 8 8 7 6 5 5 4 4 4 4 3 4 5 7 10 9 5 6 5 3 3 4 5 4 3 3 5 5 5 4 4 5 3 3 3 3 4 6 4 9 11
8 7 8 7 7 6 5 6 5 5 5 5 6 5 5 9 9 12 10 8 6 4 5 4 5 7 8 4 4 4 5 3 4 3 5 4 4 4 3 4 4 9 14
5 6 7 7 6 6 8 2 6 4 5 5 6 7 9 9 9 9 13 15 14 14 15 12 13 12 12 8 5 8 6 6 5 4 4 4 2 4 4 3 5 9 10
5 6 7 6 8 8 9 9 12 11 9 9 9 9 9 11 11 11 12 12 11 10 8 7 10 11 10 8 7 7 6 6 4 4 4 5 3 4 3 2 2 6 4
10 9 9 10 11 11 15 16 12 7 8 9 8 9 10 11 12 13 11 13 14 13 11 14 15 16 17 16 16 10 10 8 9 5 6 6 4 3 2 2 2 3 7
9 9 11 10 13 12 14 13 12 6 8 7 9 9 13 12 13 15 10 10 11 11 9 10 10 11 14 15 17 13 11 11 10 4 5 5 3 3 3 2 2 1 3
Wind_Direction
204 190 208 203 209 188 204 222 215 257 264 284 270 247 264 262 236 266 260 268 220 212 223 231 232 232 228 224 217 224 223 224 220 216 231 237 238 226 237 241 232 220 214
208 203 210 210 204 204 208 196 183 213 239 218 250 250 254 249 238 231 256 249 240 230 228 234 238 240 239 228 212 218 223 229 227 226 212 224 226 233 232 238 238 230 229
198 208 204 197 210 215 180 174 172 159 209 216 237 271 258 263 288 282 271 249 254 241 243 244 265 280 278 271 244 232 228 227 221 230 227 212 220 219 233 238 235 233 230
202 209 211 202 175 167 164 158 195 197 232 240 220 214 238 292 280 338 310 334 314 296 354 223 237 233 228 355 324 302 255 239 238 229 223 223 218 218 223 234 236 233 226
209 198 201 191 139 152 173 189 214 201 186 249 15 8 314 331 315 360 56 43 27 18 151 40 147 162 156 208 205 194 263 288 255 236 230 223 215 217 220 228 237 237 231
211 203 195 171 155 160 174 190 237 121 68 258 349 308 256 222 161 133 72 70 120 275 278 234 258 268 261 253 251 246 228 270 272 258 231 223 214 217 217 222 229 236 235
213 212 221 161 161 151 191 206 103 141 301 281 30 293 290 345 66 110 161 210 309 301 287 291 257 281 299 321 327 279 313 279 262 261 236 212 216 215 217 221 228 231 232
204 199 185 198 163 147 188 184 177 180 210 177 165 102 340 336 359 227 214 204 309 310 308 312 282 278 284 304 307 330 340 311 276 274 241 225 222 217 216 219 228 227 231
199 193 186 179 187 164 183 198 192 205 168 234 224 140 98 230 309 319 316 241 313 304 305 319 301 283 291 302 321 296 297 315 311 292 304 275 235 226 227 224 230 231 231
198 194 171 183 197 176 188 196 204 243 146 181 156 232 132 143 168 321 308 308 316 310 310 310 306 301 298 287 282 267 266 300 314 323 322 312 287 250 250 250 242 232 232
197 184 176 176 182 187 206 191 159 212 205 142 146 147 165 152 106 135 250 294 315 289 275 265 279 295 311 301 302 298 342 7 39 37 4 1 337 333 310 285 256 241 242
203 185 185 184 182 187 186 197 192 197 186 153 163 161 168 172 184 157 179 256 252 287 286 303 295 303 314 310 326 45 74 5 351 353 331 319 295 275 278 282 271 262 251
235 215 191 193 186 191 202 204 180 185 178 178 178 191 192 206 165 160 156 220 222 277 292 273 269 285 285 252 266 286 322 349 334 328 313 287 278 276 274 267 264 265 264
270 267 227 228 205 182 188 206 182 184 183 201 206 211 192 215 190 184 180 152 256 271 300 247 282 264 255 245 217 234 266 279 291 292 291 281 281 279 268 272 271 264 262
344 276 259 241 221 196 189 188 190 202 191 203 217 216 207 237 207 211 192 166 171 206 250 275 247 253 253 232 240 242 261 257 254 271 274 279 277 282 293 272 251 260 259
18 24 23 12 13 341 297 216 223 238 201 226 224 219 218 234 234 223 214 204 189 201 225 210 242 242 247 238 246 254 262 269 268 266 280 282 282 281 279 289 278 266 268
12 16 13 11 339 331 338 348 317 297 277 262 254 245 252 242 247 249 242 231 215 184 237 243 221 236 234 232 265 256 255 256 257 272 275 284 278 276 272 279 280 269 259
9 354 350 359 6 347 13 312 319 308 297 276 265 266 265 270 252 251 245 233 230 219 230 260 217 224 217 230 232 258 265 244 250 258 254 285 282 273 263 288 287 280 257
347 335 325 311 309 309 320 318 291 292 301 315 329 330 312 320 290 274 259 263 262 257 225 249 264 219 232 224 245 243 244 254 256 254 240 233 256 312 313 307 294 291 281
329 323 309 299 294 295 292 283 321 354 337 322 311 302 296 286 269 269 281 272 267 264 258 251 261 254 214 228 209 241 255 231 250 252 242 235 257 277 295 305 307 297 291
359 356 1 358 359 349 348 3 1 355 335 316 297 288 277 278 278 268 257 260 264 260 259 261 267 256 236 224 210 233 232 243 254 218 232 244 245 278 275 303 305 320 304
12 10 6 1 1 353 21 12 14 351 332 332 316 295 283 287 274 273 274 248 229 255 263 265 272 267 261 231 222 227 243 214 258 215 205 258 184 251 273 287 324 315 299
352 353 350 345 321 316 321 333 348 338 314 283 280 280 284 284 289 282 277 271 259 238 233 253 261 257 263 258 247 244 212 195 213 229 176 236 212 268 285 299 343 309 300
336 314 306 297 301 301 306 286 287 294 280 267 258 264 261 273 271 273 276 278 276 273 259 249 251 251 250 243 235 240 242 238 264 257 180 233 215 239 263 188 348 307 10
320 315 312 309 302 298 296 293 292 290 286 285 291 287 286 287 286 283 282 279 276 275 277 270 261 257 260 253 248 262 261 259 259 233 201 225 215 245 230 202 132 6 50
317 316 310 304 300 298 294 292 294 295 289 287 284 278 272 264 267 270 268 269 273 275 277 279 278 276 261 253 236 227 235 239 240 226 203 178 181 157 307 113 164 199 79